owner,sensor,date,latitude,longitude,vertical_datum,sea_water_practical_salinity,qcFlag 
SCCF RECON,ioos:station:SCCF:53:1,2009-06-01T00:00:00Z,26.6493,-81.8810,2.11,15.95,1111122 
SCCF RECON,ioos:station:SCCF:53:1,2009-06-01T01:00:00Z,26.6493,-81.8810,2.15,16.62,1111122 
SCCF RECON,ioos:station:SCCF:53:1,2009-06-01T02:00:00Z,26.6493,-81.8810,2.199,16.32,1111122 
SCCF RECON,ioos:station:SCCF:53:1,2009-06-01T03:00:00Z,26.6493,-81.8810,2.221,16.52,1111122 
SCCF RECON,ioos:station:SCCF:53:1,2009-06-01T04:00:00Z,26.6493,-81.8810,2.21,16.8,1111122 
SCCF RECON,ioos:station:SCCF:53:1,2009-06-01T05:00:00Z,26.6493,-81.8810,2.17,16.65,1111122 
SCCF RECON,ioos:station:SCCF:53:1,2009-06-01T06:00:00Z,26.6493,-81.8810,2.12,16.14,1111122 
SCCF RECON,ioos:station:SCCF:53:1,2009-06-01T07:00:00Z,26.6493,-81.8810,2.08,16.17,1111122 
SCCF RECON,ioos:station:SCCF:53:1,2009-06-01T08:00:00Z,26.6493,-81.8810,2.04,16.79,1111122 
SCCF RECON,ioos:station:SCCF:53:1,2009-06-01T09:00:00Z,26.6493,-81.8810,2.01,16.64,1111122 
SCCF RECON,ioos:station:SCCF:53:1,2009-06-01T10:00:00Z,26.6493,-81.8810,2.01,16.71,1111122 
SCCF RECON,ioos:station:SCCF:53:1,2009-06-01T11:00:00Z,26.6493,-81.8810,2.06,16.22,1111122 
SCCF RECON,ioos:station:SCCF:53:1,2009-06-01T12:00:00Z,26.6493,-81.8810,2.119,15.97,1111122 
SCCF RECON,ioos:station:SCCF:53:1,2009-06-01T13:00:00Z,26.6493,-81.8810,2.16,15.79,1111122 
SCCF RECON,ioos:station:SCCF:53:1,2009-06-01T14:00:00Z,26.6493,-81.8810,2.224,16.22,1111122 
SCCF RECON,ioos:station:SCCF:53:1,2009-06-01T15:00:00Z,26.6493,-81.8810,2.269,16.57,1111122 
SCCF RECON,ioos:station:SCCF:53:1,2009-06-01T16:00:00Z,26.6493,-81.8810,2.28,17.1,1111122 
SCCF RECON,ioos:station:SCCF:53:1,2009-06-01T17:00:00Z,26.6493,-81.8810,2.26,16.72,1111122 
SCCF RECON,ioos:station:SCCF:53:1,2009-06-01T18:00:00Z,26.6493,-81.8810,2.202,16.43,1111122 
SCCF RECON,ioos:station:SCCF:53:1,2009-06-01T20:00:00Z,26.6493,-81.8810,2.111,16.27,1111122 
SCCF RECON,ioos:station:SCCF:53:1,2009-06-01T21:00:00Z,26.6493,-81.8810,2.07,16.16,1111122 
SCCF RECON,ioos:station:SCCF:53:1,2009-06-01T22:00:00Z,26.6493,-81.8810,2.037,16.14,1111122 
SCCF RECON,ioos:station:SCCF:53:1,2009-06-01T23:00:00Z,26.6493,-81.8810,2.025,15.38,1111122 
SCCF RECON,ioos:station:SCCF:53:1,2009-06-02T00:00:00Z,26.6493,-81.8810,2.07,15.52,1111122 
SCCF RECON,ioos:station:SCCF:53:1,2009-06-02T01:00:00Z,26.6493,-81.8810,2.108,15.26,1111122 
SCCF RECON,ioos:station:SCCF:53:1,2009-06-02T02:00:00Z,26.6493,-81.8810,2.121,16.04,1111122 
SCCF RECON,ioos:station:SCCF:53:1,2009-06-02T03:00:00Z,26.6493,-81.8810,2.17,15.64,1111122 
SCCF RECON,ioos:station:SCCF:53:1,2009-06-02T04:00:00Z,26.6493,-81.8810,2.2,15.15,1111122 
SCCF RECON,ioos:station:SCCF:53:1,2009-06-02T05:00:00Z,26.6493,-81.8810,2.19,15.74,1111122 
SCCF RECON,ioos:station:SCCF:53:1,2009-06-02T06:00:00Z,26.6493,-81.8810,2.17,15.78,1111122 
SCCF RECON,ioos:station:SCCF:53:1,2009-06-02T07:00:00Z,26.6493,-81.8810,2.14,15.29,1111122 
SCCF RECON,ioos:station:SCCF:53:1,2009-06-02T08:00:00Z,26.6493,-81.8810,2.09,15.74,1111122 
SCCF RECON,ioos:station:SCCF:53:1,2009-06-02T09:00:00Z,26.6493,-81.8810,2.06,15.81,1111122 
SCCF RECON,ioos:station:SCCF:53:1,2009-06-02T10:00:00Z,26.6493,-81.8810,2.05,15.83,1111122 
SCCF RECON,ioos:station:SCCF:53:1,2009-06-02T11:00:00Z,26.6493,-81.8810,2.064,15.9,1111122 
SCCF RECON,ioos:station:SCCF:53:1,2009-06-02T12:00:00Z,26.6493,-81.8810,2.13,15.6,1111122 
SCCF RECON,ioos:station:SCCF:53:1,2009-06-02T13:00:00Z,26.6493,-81.8810,2.19,14.83,1111122 
SCCF RECON,ioos:station:SCCF:53:1,2009-06-02T14:00:00Z,26.6493,-81.8810,2.251,16.11,1111122 
SCCF RECON,ioos:station:SCCF:53:1,2009-06-02T15:00:00Z,26.6493,-81.8810,2.311,16.43,1111122 
SCCF RECON,ioos:station:SCCF:53:1,2009-06-02T16:00:00Z,26.6493,-81.8810,2.35,16.17,1111122 
SCCF RECON,ioos:station:SCCF:53:1,2009-06-02T17:00:00Z,26.6493,-81.8810,2.37,16.61,1111122 
SCCF RECON,ioos:station:SCCF:53:1,2009-06-02T18:00:00Z,26.6493,-81.8810,2.34,15.89,1111122 
SCCF RECON,ioos:station:SCCF:53:1,2009-06-02T19:00:00Z,26.6493,-81.8810,2.28,15.14,1111122 
SCCF RECON,ioos:station:SCCF:53:1,2009-06-02T20:00:00Z,26.6493,-81.8810,2.22,15.2,1111122 
SCCF RECON,ioos:station:SCCF:53:1,2009-06-02T21:00:00Z,26.6493,-81.8810,2.18,15.49,1111122 
SCCF RECON,ioos:station:SCCF:53:1,2009-06-02T22:00:00Z,26.6493,-81.8810,2.12,14.96,1111122 
SCCF RECON,ioos:station:SCCF:53:1,2009-06-02T23:00:00Z,26.6493,-81.8810,2.09,15.61,1111122 
SCCF RECON,ioos:station:SCCF:53:1,2009-06-03T00:00:00Z,26.6493,-81.8810,2.074,15.77,1111122 
SCCF RECON,ioos:station:SCCF:53:1,2009-06-03T01:00:00Z,26.6493,-81.8810,2.054,15.15,1111122 
SCCF RECON,ioos:station:SCCF:53:1,2009-06-03T02:00:00Z,26.6493,-81.8810,2.07,15.34,1111122 
SCCF RECON,ioos:station:SCCF:53:1,2009-06-03T03:00:00Z,26.6493,-81.8810,2.1,15.47,1111122 
SCCF RECON,ioos:station:SCCF:53:1,2009-06-03T04:00:00Z,26.6493,-81.8810,2.14,15.78,1111122 
SCCF RECON,ioos:station:SCCF:53:1,2009-06-03T05:00:00Z,26.6493,-81.8810,2.18,15.97,1111122 
SCCF RECON,ioos:station:SCCF:53:1,2009-06-03T06:00:00Z,26.6493,-81.8810,2.18,16.02,1111122 
SCCF RECON,ioos:station:SCCF:53:1,2009-06-03T07:00:00Z,26.6493,-81.8810,2.16,15.78,1111122 
SCCF RECON,ioos:station:SCCF:53:1,2009-06-03T08:00:00Z,26.6493,-81.8810,2.12,15.61,1111122 
SCCF RECON,ioos:station:SCCF:53:1,2009-06-03T09:00:00Z,26.6493,-81.8810,2.1,14.96,1111122 
SCCF RECON,ioos:station:SCCF:53:1,2009-06-03T10:00:00Z,26.6493,-81.8810,2.06,15.32,1111122 
SCCF RECON,ioos:station:SCCF:53:1,2009-06-03T11:00:00Z,26.6493,-81.8810,2.06,15.83,1111122 
SCCF RECON,ioos:station:SCCF:53:1,2009-06-03T12:00:00Z,26.6493,-81.8810,2.088,15.08,1111122 
SCCF RECON,ioos:station:SCCF:53:1,2009-06-03T13:00:00Z,26.6493,-81.8810,2.14,14.44,1111122 
SCCF RECON,ioos:station:SCCF:53:1,2009-06-03T14:00:00Z,26.6493,-81.8810,2.197,15.63,1111122 
SCCF RECON,ioos:station:SCCF:53:1,2009-06-03T15:00:00Z,26.6493,-81.8810,2.251,15.87,1111122 
SCCF RECON,ioos:station:SCCF:53:1,2009-06-03T16:00:00Z,26.6493,-81.8810,2.301,16.07,1111122 
SCCF RECON,ioos:station:SCCF:53:1,2009-06-03T17:00:00Z,26.6493,-81.8810,2.34,16.26,1111122 
SCCF RECON,ioos:station:SCCF:53:1,2009-06-03T18:00:00Z,26.6493,-81.8810,2.34,15.73,1111122 
SCCF RECON,ioos:station:SCCF:53:1,2009-06-03T19:00:00Z,26.6493,-81.8810,2.28,15.03,1111122 
SCCF RECON,ioos:station:SCCF:53:1,2009-06-03T20:00:00Z,26.6493,-81.8810,2.24,14.14,1111122 
SCCF RECON,ioos:station:SCCF:53:1,2009-06-03T21:00:00Z,26.6493,-81.8810,2.17,14.0,1111122 
SCCF RECON,ioos:station:SCCF:53:1,2009-06-03T22:00:00Z,26.6493,-81.8810,2.12,14.05,1111122 
SCCF RECON,ioos:station:SCCF:53:1,2009-06-03T23:00:00Z,26.6493,-81.8810,2.075,13.74,1111122 
SCCF RECON,ioos:station:SCCF:53:1,2009-06-04T00:00:00Z,26.6493,-81.8810,2.03,14.22,1111122 
SCCF RECON,ioos:station:SCCF:53:1,2009-06-04T01:00:00Z,26.6493,-81.8810,2.0,14.61,1111122 
SCCF RECON,ioos:station:SCCF:53:1,2009-06-04T02:00:00Z,26.6493,-81.8810,2.02,14.66,1111122 
SCCF RECON,ioos:station:SCCF:53:1,2009-06-04T03:00:00Z,26.6493,-81.8810,2.04,14.72,1111122 
SCCF RECON,ioos:station:SCCF:53:1,2009-06-04T04:00:00Z,26.6493,-81.8810,2.09,14.52,1111122 
SCCF RECON,ioos:station:SCCF:53:1,2009-06-04T05:00:00Z,26.6493,-81.8810,2.15,14.76,1111122 
SCCF RECON,ioos:station:SCCF:53:1,2009-06-04T06:00:00Z,26.6493,-81.8810,2.17,14.91,1111122 
SCCF RECON,ioos:station:SCCF:53:1,2009-06-04T07:00:00Z,26.6493,-81.8810,2.2,14.5,1111122 
SCCF RECON,ioos:station:SCCF:53:1,2009-06-04T08:00:00Z,26.6493,-81.8810,2.21,14.97,1111122 
SCCF RECON,ioos:station:SCCF:53:1,2009-06-04T09:00:00Z,26.6493,-81.8810,2.19,14.18,1111122 
SCCF RECON,ioos:station:SCCF:53:1,2009-06-04T10:00:00Z,26.6493,-81.8810,2.16,14.16,1111122 
SCCF RECON,ioos:station:SCCF:53:1,2009-06-04T11:00:00Z,26.6493,-81.8810,2.13,14.26,1111122 
SCCF RECON,ioos:station:SCCF:53:1,2009-06-04T12:00:00Z,26.6493,-81.8810,2.139,14.37,1111122 
SCCF RECON,ioos:station:SCCF:53:1,2009-06-04T13:00:00Z,26.6493,-81.8810,2.189,14.15,1111122 
SCCF RECON,ioos:station:SCCF:53:1,2009-06-04T14:00:00Z,26.6493,-81.8810,2.25,13.21,1111122 
SCCF RECON,ioos:station:SCCF:53:1,2009-06-04T15:00:00Z,26.6493,-81.8810,2.301,14.42,1111122 
SCCF RECON,ioos:station:SCCF:53:1,2009-06-04T16:00:00Z,26.6493,-81.8810,2.348,14.29,1111122 
SCCF RECON,ioos:station:SCCF:53:1,2009-06-04T17:00:00Z,26.6493,-81.8810,2.399,14.43,1111122 
SCCF RECON,ioos:station:SCCF:53:1,2009-06-04T18:00:00Z,26.6493,-81.8810,2.429,13.82,1111122 
SCCF RECON,ioos:station:SCCF:53:1,2009-06-04T19:00:00Z,26.6493,-81.8810,2.4,13.25,1111122 
SCCF RECON,ioos:station:SCCF:53:1,2009-06-04T20:00:00Z,26.6493,-81.8810,2.34,13.43,1111122 
SCCF RECON,ioos:station:SCCF:53:1,2009-06-04T21:00:00Z,26.6493,-81.8810,2.268,12.42,1111122 
SCCF RECON,ioos:station:SCCF:53:1,2009-06-04T22:00:00Z,26.6493,-81.8810,2.209,11.75,1111122 
SCCF RECON,ioos:station:SCCF:53:1,2009-06-04T23:00:00Z,26.6493,-81.8810,2.158,11.5,1111122 
SCCF RECON,ioos:station:SCCF:53:1,2009-06-05T00:00:00Z,26.6493,-81.8810,2.107,11.04,1111122 
SCCF RECON,ioos:station:SCCF:53:1,2009-06-05T01:00:00Z,26.6493,-81.8810,2.064,10.24,1111122 
SCCF RECON,ioos:station:SCCF:53:1,2009-06-05T02:00:00Z,26.6493,-81.8810,2.03,10.04,1111122 
SCCF RECON,ioos:station:SCCF:53:1,2009-06-05T03:00:00Z,26.6493,-81.8810,2.04,10.51,1111122 
SCCF RECON,ioos:station:SCCF:53:1,2009-06-05T04:00:00Z,26.6493,-81.8810,2.07,10.33,1111122 
SCCF RECON,ioos:station:SCCF:53:1,2009-06-05T05:00:00Z,26.6493,-81.8810,2.106,10.7,1111122 
SCCF RECON,ioos:station:SCCF:53:1,2009-06-05T06:00:00Z,26.6493,-81.8810,2.15,11.12,1111122 
SCCF RECON,ioos:station:SCCF:53:1,2009-06-05T07:00:00Z,26.6493,-81.8810,2.18,11.74,1111122 
SCCF RECON,ioos:station:SCCF:53:1,2009-06-05T08:00:00Z,26.6493,-81.8810,2.22,11.89,1111122 
SCCF RECON,ioos:station:SCCF:53:1,2009-06-05T09:00:00Z,26.6493,-81.8810,2.22,11.26,1111122 
SCCF RECON,ioos:station:SCCF:53:1,2009-06-05T10:00:00Z,26.6493,-81.8810,2.21,11.45,1111122 
SCCF RECON,ioos:station:SCCF:53:1,2009-06-05T11:00:00Z,26.6493,-81.8810,2.19,11.07,1111122 
SCCF RECON,ioos:station:SCCF:53:1,2009-06-05T12:00:00Z,26.6493,-81.8810,2.2,10.87,1111122 
SCCF RECON,ioos:station:SCCF:53:1,2009-06-05T13:00:00Z,26.6493,-81.8810,2.23,11.21,1111122 
SCCF RECON,ioos:station:SCCF:53:1,2009-06-05T14:00:00Z,26.6493,-81.8810,2.28,11.48,1111122 
SCCF RECON,ioos:station:SCCF:53:1,2009-06-05T15:00:00Z,26.6493,-81.8810,2.333,11.65,1111122 
SCCF RECON,ioos:station:SCCF:53:1,2009-06-05T16:00:00Z,26.6493,-81.8810,2.397,11.63,1111122 
SCCF RECON,ioos:station:SCCF:53:1,2009-06-05T17:00:00Z,26.6493,-81.8810,2.439,11.07,1111122 
SCCF RECON,ioos:station:SCCF:53:1,2009-06-05T18:00:00Z,26.6493,-81.8810,2.478,9.99,1111122 
SCCF RECON,ioos:station:SCCF:53:1,2009-06-05T19:00:00Z,26.6493,-81.8810,2.468,9.23,1111122 
SCCF RECON,ioos:station:SCCF:53:1,2009-06-05T20:00:00Z,26.6493,-81.8810,2.424,8.72,1111122 
SCCF RECON,ioos:station:SCCF:53:1,2009-06-05T21:00:00Z,26.6493,-81.8810,2.364,8.05,1111122 
SCCF RECON,ioos:station:SCCF:53:1,2009-06-05T22:00:00Z,26.6493,-81.8810,2.312,7.96,1111122 
SCCF RECON,ioos:station:SCCF:53:1,2009-06-05T23:00:00Z,26.6493,-81.8810,2.253,7.49,1111122 
SCCF RECON,ioos:station:SCCF:53:1,2009-06-06T00:00:00Z,26.6493,-81.8810,2.203,7.02,1111122 
SCCF RECON,ioos:station:SCCF:53:1,2009-06-06T01:00:00Z,26.6493,-81.8810,2.15,6.73,1111122 
SCCF RECON,ioos:station:SCCF:53:1,2009-06-06T02:00:00Z,26.6493,-81.8810,2.091,6.31,1111122 
SCCF RECON,ioos:station:SCCF:53:1,2009-06-06T03:00:00Z,26.6493,-81.8810,2.06,6.21,1111122 
SCCF RECON,ioos:station:SCCF:53:1,2009-06-06T04:00:00Z,26.6493,-81.8810,2.05,6.5,1111122 
SCCF RECON,ioos:station:SCCF:53:1,2009-06-06T05:00:00Z,26.6493,-81.8810,2.07,6.64,1111122 
SCCF RECON,ioos:station:SCCF:53:1,2009-06-06T06:00:00Z,26.6493,-81.8810,2.12,7.11,1111122 
SCCF RECON,ioos:station:SCCF:53:1,2009-06-06T07:00:00Z,26.6493,-81.8810,2.15,7.74,1111122 
SCCF RECON,ioos:station:SCCF:53:1,2009-06-06T08:00:00Z,26.6493,-81.8810,2.19,7.81,1111122 
SCCF RECON,ioos:station:SCCF:53:1,2009-06-06T09:00:00Z,26.6493,-81.8810,2.23,7.63,1111122 
SCCF RECON,ioos:station:SCCF:53:1,2009-06-06T10:00:00Z,26.6493,-81.8810,2.25,7.59,1111122 
SCCF RECON,ioos:station:SCCF:53:1,2009-06-06T11:00:00Z,26.6493,-81.8810,2.27,7.11,1111122 
SCCF RECON,ioos:station:SCCF:53:1,2009-06-06T12:00:00Z,26.6493,-81.8810,2.292,7.14,1111122 
SCCF RECON,ioos:station:SCCF:53:1,2009-06-06T13:00:00Z,26.6493,-81.8810,2.294,7.11,1111122 
SCCF RECON,ioos:station:SCCF:53:1,2009-06-06T14:00:00Z,26.6493,-81.8810,2.31,7.35,1111122 
SCCF RECON,ioos:station:SCCF:53:1,2009-06-06T15:00:00Z,26.6493,-81.8810,2.37,7.63,1111122 
SCCF RECON,ioos:station:SCCF:53:1,2009-06-06T16:00:00Z,26.6493,-81.8810,2.437,7.59,1111122 
SCCF RECON,ioos:station:SCCF:53:1,2009-06-06T17:00:00Z,26.6493,-81.8810,2.492,7.95,1111122 
SCCF RECON,ioos:station:SCCF:53:1,2009-06-06T18:00:00Z,26.6493,-81.8810,2.528,8.15,1111122 
SCCF RECON,ioos:station:SCCF:53:1,2009-06-06T19:00:00Z,26.6493,-81.8810,2.541,8.24,1111122 
SCCF RECON,ioos:station:SCCF:53:1,2009-06-06T20:00:00Z,26.6493,-81.8810,2.509,8.2,1111122 
SCCF RECON,ioos:station:SCCF:53:1,2009-06-06T21:00:00Z,26.6493,-81.8810,2.459,7.83,1111122 
SCCF RECON,ioos:station:SCCF:53:1,2009-06-06T22:00:00Z,26.6493,-81.8810,2.397,7.38,1111122 
SCCF RECON,ioos:station:SCCF:53:1,2009-06-06T23:00:00Z,26.6493,-81.8810,2.33,6.81,1111122 
SCCF RECON,ioos:station:SCCF:53:1,2009-06-07T00:00:00Z,26.6493,-81.8810,2.278,6.28,1111122 
SCCF RECON,ioos:station:SCCF:53:1,2009-06-07T01:00:00Z,26.6493,-81.8810,2.21,5.86,1111122 
SCCF RECON,ioos:station:SCCF:53:1,2009-06-07T02:00:00Z,26.6493,-81.8810,2.151,5.47,1111122 
SCCF RECON,ioos:station:SCCF:53:1,2009-06-07T03:00:00Z,26.6493,-81.8810,2.1,5.0,1111122 
SCCF RECON,ioos:station:SCCF:53:1,2009-06-07T04:00:00Z,26.6493,-81.8810,2.07,4.44,1111122 
SCCF RECON,ioos:station:SCCF:53:1,2009-06-07T05:00:00Z,26.6493,-81.8810,2.06,6.16,1111122 
SCCF RECON,ioos:station:SCCF:53:1,2009-06-07T06:00:00Z,26.6493,-81.8810,2.088,6.55,1111122 
SCCF RECON,ioos:station:SCCF:53:1,2009-06-07T07:00:00Z,26.6493,-81.8810,2.13,6.81,1111122 
SCCF RECON,ioos:station:SCCF:53:1,2009-06-07T08:00:00Z,26.6493,-81.8810,2.17,7.11,1111122 
SCCF RECON,ioos:station:SCCF:53:1,2009-06-07T09:00:00Z,26.6493,-81.8810,2.19,6.96,1111122 
SCCF RECON,ioos:station:SCCF:53:1,2009-06-07T10:00:00Z,26.6493,-81.8810,2.23,6.88,1111122 
SCCF RECON,ioos:station:SCCF:53:1,2009-06-07T11:00:00Z,26.6493,-81.8810,2.24,6.21,1111122 
SCCF RECON,ioos:station:SCCF:53:1,2009-06-07T12:00:00Z,26.6493,-81.8810,2.22,6.47,1111122 
SCCF RECON,ioos:station:SCCF:53:1,2009-06-07T13:00:00Z,26.6493,-81.8810,2.19,5.51,1111122 
SCCF RECON,ioos:station:SCCF:53:1,2009-06-07T14:00:00Z,26.6493,-81.8810,2.179,5.83,1111122 
SCCF RECON,ioos:station:SCCF:53:1,2009-06-07T15:00:00Z,26.6493,-81.8810,2.233,6.55,1111122 
SCCF RECON,ioos:station:SCCF:53:1,2009-06-07T16:00:00Z,26.6493,-81.8810,2.302,6.71,1111122 
SCCF RECON,ioos:station:SCCF:53:1,2009-06-07T17:00:00Z,26.6493,-81.8810,2.362,6.88,1111122 
SCCF RECON,ioos:station:SCCF:53:1,2009-06-07T18:00:00Z,26.6493,-81.8810,2.439,7.21,1111122 
SCCF RECON,ioos:station:SCCF:53:1,2009-06-07T19:00:00Z,26.6493,-81.8810,2.495,7.39,1111122 
SCCF RECON,ioos:station:SCCF:53:1,2009-06-07T20:00:00Z,26.6493,-81.8810,2.511,7.55,1111122 
SCCF RECON,ioos:station:SCCF:53:1,2009-06-07T21:00:00Z,26.6493,-81.8810,2.447,7.2,1111122 
SCCF RECON,ioos:station:SCCF:53:1,2009-06-07T22:00:00Z,26.6493,-81.8810,2.37,6.87,1111122 
SCCF RECON,ioos:station:SCCF:53:1,2009-06-07T23:00:00Z,26.6493,-81.8810,2.319,6.57,1111122 
SCCF RECON,ioos:station:SCCF:53:1,2009-06-08T00:00:00Z,26.6493,-81.8810,2.25,6.63,1111122 
SCCF RECON,ioos:station:SCCF:53:1,2009-06-08T01:00:00Z,26.6493,-81.8810,2.199,7.1,1111122 
SCCF RECON,ioos:station:SCCF:53:1,2009-06-08T02:00:00Z,26.6493,-81.8810,2.14,6.51,1111122 
SCCF RECON,ioos:station:SCCF:53:1,2009-06-08T03:00:00Z,26.6493,-81.8810,2.08,6.61,1111122 
SCCF RECON,ioos:station:SCCF:53:1,2009-06-08T04:00:00Z,26.6493,-81.8810,2.04,5.84,1111122 
SCCF RECON,ioos:station:SCCF:53:1,2009-06-08T05:00:00Z,26.6493,-81.8810,2.03,7.58,1111122 
SCCF RECON,ioos:station:SCCF:53:1,2009-06-08T06:00:00Z,26.6493,-81.8810,2.04,6.67,1111122 
SCCF RECON,ioos:station:SCCF:53:1,2009-06-08T07:00:00Z,26.6493,-81.8810,2.09,7.58,1111122 
SCCF RECON,ioos:station:SCCF:53:1,2009-06-08T08:00:00Z,26.6493,-81.8810,2.13,7.24,1111122 
SCCF RECON,ioos:station:SCCF:53:1,2009-06-08T09:00:00Z,26.6493,-81.8810,2.17,7.29,1111122 
SCCF RECON,ioos:station:SCCF:53:1,2009-06-08T10:00:00Z,26.6493,-81.8810,2.18,8.19,1111122 
SCCF RECON,ioos:station:SCCF:53:1,2009-06-08T11:00:00Z,26.6493,-81.8810,2.2,7.99,1111122 
SCCF RECON,ioos:station:SCCF:53:1,2009-06-08T12:00:00Z,26.6493,-81.8810,2.189,7.94,1111122 
SCCF RECON,ioos:station:SCCF:53:1,2009-06-08T13:00:00Z,26.6493,-81.8810,2.173,7.78,1111122 
SCCF RECON,ioos:station:SCCF:53:1,2009-06-08T14:00:00Z,26.6493,-81.8810,2.19,7.75,1111122 
SCCF RECON,ioos:station:SCCF:53:1,2009-06-08T15:00:00Z,26.6493,-81.8810,2.24,7.9,1111122 
SCCF RECON,ioos:station:SCCF:53:1,2009-06-08T16:00:00Z,26.6493,-81.8810,2.286,8.0,1111122 
SCCF RECON,ioos:station:SCCF:53:1,2009-06-08T17:00:00Z,26.6493,-81.8810,2.35,8.41,1111122 
SCCF RECON,ioos:station:SCCF:53:1,2009-06-08T18:00:00Z,26.6493,-81.8810,2.4,8.65,1111122 
SCCF RECON,ioos:station:SCCF:53:1,2009-06-08T19:00:00Z,26.6493,-81.8810,2.43,8.31,1111122 
SCCF RECON,ioos:station:SCCF:53:1,2009-06-08T20:00:00Z,26.6493,-81.8810,2.444,9.97,1111122 
SCCF RECON,ioos:station:SCCF:53:1,2009-06-08T21:00:00Z,26.6493,-81.8810,2.413,9.19,1111122 
SCCF RECON,ioos:station:SCCF:53:1,2009-06-08T22:00:00Z,26.6493,-81.8810,2.359,7.82,1111122 
SCCF RECON,ioos:station:SCCF:53:1,2009-06-08T23:00:00Z,26.6493,-81.8810,2.3,7.67,1111122 
SCCF RECON,ioos:station:SCCF:53:1,2009-06-09T00:00:00Z,26.6493,-81.8810,2.25,8.25,1111122 
SCCF RECON,ioos:station:SCCF:53:1,2009-06-09T01:00:00Z,26.6493,-81.8810,2.19,8.67,1111122 
SCCF RECON,ioos:station:SCCF:53:1,2009-06-09T02:00:00Z,26.6493,-81.8810,2.13,8.68,1111122 
SCCF RECON,ioos:station:SCCF:53:1,2009-06-09T03:00:00Z,26.6493,-81.8810,2.08,8.43,1111122 
SCCF RECON,ioos:station:SCCF:53:1,2009-06-09T04:00:00Z,26.6493,-81.8810,2.03,8.23,1111122 
SCCF RECON,ioos:station:SCCF:53:1,2009-06-09T05:00:00Z,26.6493,-81.8810,2.0,8.87,1111122 
SCCF RECON,ioos:station:SCCF:53:1,2009-06-09T06:00:00Z,26.6493,-81.8810,2.0,9.38,1111122 
SCCF RECON,ioos:station:SCCF:53:1,2009-06-09T07:00:00Z,26.6493,-81.8810,2.04,8.59,1111122 
SCCF RECON,ioos:station:SCCF:53:1,2009-06-09T08:00:00Z,26.6493,-81.8810,2.09,8.14,1111122 
SCCF RECON,ioos:station:SCCF:53:1,2009-06-09T09:00:00Z,26.6493,-81.8810,2.14,8.74,1111122 
SCCF RECON,ioos:station:SCCF:53:1,2009-06-09T10:00:00Z,26.6493,-81.8810,2.19,9.34,1111122 
SCCF RECON,ioos:station:SCCF:53:1,2009-06-09T11:00:00Z,26.6493,-81.8810,2.22,8.92,1111122 
SCCF RECON,ioos:station:SCCF:53:1,2009-06-09T12:00:00Z,26.6493,-81.8810,2.22,9.13,1111122 
SCCF RECON,ioos:station:SCCF:53:1,2009-06-09T13:00:00Z,26.6493,-81.8810,2.21,9.29,1111122 
SCCF RECON,ioos:station:SCCF:53:1,2009-06-09T14:00:00Z,26.6493,-81.8810,2.2,9.47,1111122 
SCCF RECON,ioos:station:SCCF:53:1,2009-06-09T15:00:00Z,26.6493,-81.8810,2.207,9.65,1111122 
SCCF RECON,ioos:station:SCCF:53:1,2009-06-09T16:00:00Z,26.6493,-81.8810,2.26,9.05,1111122 
SCCF RECON,ioos:station:SCCF:53:1,2009-06-09T17:00:00Z,26.6493,-81.8810,2.32,9.23,1111122 
SCCF RECON,ioos:station:SCCF:53:1,2009-06-09T18:00:00Z,26.6493,-81.8810,2.37,9.51,1111122 
SCCF RECON,ioos:station:SCCF:53:1,2009-06-09T19:00:00Z,26.6493,-81.8810,2.424,10.47,1111122 
SCCF RECON,ioos:station:SCCF:53:1,2009-06-09T20:00:00Z,26.6493,-81.8810,2.45,11.33,1111122 
SCCF RECON,ioos:station:SCCF:53:1,2009-06-09T21:00:00Z,26.6493,-81.8810,2.43,10.11,1111122 
SCCF RECON,ioos:station:SCCF:53:1,2009-06-09T22:00:00Z,26.6493,-81.8810,2.37,9.18,1111122 
SCCF RECON,ioos:station:SCCF:53:1,2009-06-09T23:00:00Z,26.6493,-81.8810,2.311,9.37,1111122 
SCCF RECON,ioos:station:SCCF:53:1,2009-06-10T00:00:00Z,26.6493,-81.8810,2.258,8.88,1111122 
SCCF RECON,ioos:station:SCCF:53:1,2009-06-10T01:00:00Z,26.6493,-81.8810,2.2,8.62,1111122 
SCCF RECON,ioos:station:SCCF:53:1,2009-06-10T02:00:00Z,26.6493,-81.8810,2.15,7.76,1111122 
SCCF RECON,ioos:station:SCCF:53:1,2009-06-10T03:00:00Z,26.6493,-81.8810,2.1,7.8,1111122 
SCCF RECON,ioos:station:SCCF:53:1,2009-06-10T04:00:00Z,26.6493,-81.8810,2.05,9.08,1111122 
SCCF RECON,ioos:station:SCCF:53:1,2009-06-10T05:00:00Z,26.6493,-81.8810,2.0,9.62,1111122 
SCCF RECON,ioos:station:SCCF:53:1,2009-06-10T06:00:00Z,26.6493,-81.8810,1.97,9.38,1111122 
SCCF RECON,ioos:station:SCCF:53:1,2009-06-10T07:00:00Z,26.6493,-81.8810,1.99,9.46,1111122 
SCCF RECON,ioos:station:SCCF:53:1,2009-06-10T08:00:00Z,26.6493,-81.8810,2.04,9.42,1111122 
SCCF RECON,ioos:station:SCCF:53:1,2009-06-10T09:00:00Z,26.6493,-81.8810,2.09,9.26,1111122 
SCCF RECON,ioos:station:SCCF:53:1,2009-06-10T10:00:00Z,26.6493,-81.8810,2.13,9.84,1111122 
SCCF RECON,ioos:station:SCCF:53:1,2009-06-10T11:00:00Z,26.6493,-81.8810,2.17,10.53,1111122 
SCCF RECON,ioos:station:SCCF:53:1,2009-06-10T12:00:00Z,26.6493,-81.8810,2.18,10.79,1111122 
SCCF RECON,ioos:station:SCCF:53:1,2009-06-10T13:00:00Z,26.6493,-81.8810,2.16,10.7,1111122 
SCCF RECON,ioos:station:SCCF:53:1,2009-06-10T14:00:00Z,26.6493,-81.8810,2.14,10.66,1111122 
SCCF RECON,ioos:station:SCCF:53:1,2009-06-10T15:00:00Z,26.6493,-81.8810,2.12,10.91,1111122 
SCCF RECON,ioos:station:SCCF:53:1,2009-06-10T16:00:00Z,26.6493,-81.8810,2.14,10.34,1111122 
SCCF RECON,ioos:station:SCCF:53:1,2009-06-10T17:00:00Z,26.6493,-81.8810,2.2,10.64,1111122 
SCCF RECON,ioos:station:SCCF:53:1,2009-06-10T18:00:00Z,26.6493,-81.8810,2.266,10.28,1111122 
SCCF RECON,ioos:station:SCCF:53:1,2009-06-10T19:00:00Z,26.6493,-81.8810,2.329,9.92,1111122 
SCCF RECON,ioos:station:SCCF:53:1,2009-06-10T20:00:00Z,26.6493,-81.8810,2.37,11.14,1111122 
SCCF RECON,ioos:station:SCCF:53:1,2009-06-10T21:00:00Z,26.6493,-81.8810,2.396,9.04,1111122 
SCCF RECON,ioos:station:SCCF:53:1,2009-06-10T22:00:00Z,26.6493,-81.8810,2.392,6.67,1111122 
SCCF RECON,ioos:station:SCCF:53:1,2009-06-10T23:00:00Z,26.6493,-81.8810,2.335,6.63,1111122 
SCCF RECON,ioos:station:SCCF:53:1,2009-06-11T00:00:00Z,26.6493,-81.8810,2.289,6.96,1111122 
SCCF RECON,ioos:station:SCCF:53:1,2009-06-11T01:00:00Z,26.6493,-81.8810,2.221,7.02,1111122 
SCCF RECON,ioos:station:SCCF:53:1,2009-06-11T02:00:00Z,26.6493,-81.8810,2.18,8.6,1111122 
SCCF RECON,ioos:station:SCCF:53:1,2009-06-11T03:00:00Z,26.6493,-81.8810,2.12,8.04,1111122 
SCCF RECON,ioos:station:SCCF:53:1,2009-06-11T04:00:00Z,26.6493,-81.8810,2.07,8.45,1111122 
SCCF RECON,ioos:station:SCCF:53:1,2009-06-11T05:00:00Z,26.6493,-81.8810,2.01,8.62,1111122 
SCCF RECON,ioos:station:SCCF:53:1,2009-06-11T06:00:00Z,26.6493,-81.8810,1.97,8.82,1111122 
SCCF RECON,ioos:station:SCCF:53:1,2009-06-11T07:00:00Z,26.6493,-81.8810,1.98,9.01,1111122 
SCCF RECON,ioos:station:SCCF:53:1,2009-06-11T08:00:00Z,26.6493,-81.8810,2.029,9.2,1111122 
SCCF RECON,ioos:station:SCCF:53:1,2009-06-11T09:00:00Z,26.6493,-81.8810,2.08,8.8,1111122 
SCCF RECON,ioos:station:SCCF:53:1,2009-06-11T10:00:00Z,26.6493,-81.8810,2.13,9.61,1111122 
SCCF RECON,ioos:station:SCCF:53:1,2009-06-11T11:00:00Z,26.6493,-81.8810,2.18,9.72,1111122 
SCCF RECON,ioos:station:SCCF:53:1,2009-06-11T12:00:00Z,26.6493,-81.8810,2.21,9.89,1111122 
SCCF RECON,ioos:station:SCCF:53:1,2009-06-11T13:00:00Z,26.6493,-81.8810,2.218,9.91,1111122 
SCCF RECON,ioos:station:SCCF:53:1,2009-06-11T14:00:00Z,26.6493,-81.8810,2.2,9.6,1111122 
SCCF RECON,ioos:station:SCCF:53:1,2009-06-11T15:00:00Z,26.6493,-81.8810,2.18,9.8,1111122 
SCCF RECON,ioos:station:SCCF:53:1,2009-06-11T16:00:00Z,26.6493,-81.8810,2.17,9.81,1111122 
SCCF RECON,ioos:station:SCCF:53:1,2009-06-11T17:00:00Z,26.6493,-81.8810,2.19,9.97,1111122 
SCCF RECON,ioos:station:SCCF:53:1,2009-06-11T18:00:00Z,26.6493,-81.8810,2.244,9.95,1111122 
SCCF RECON,ioos:station:SCCF:53:1,2009-06-11T19:00:00Z,26.6493,-81.8810,2.31,9.55,1111122 
SCCF RECON,ioos:station:SCCF:53:1,2009-06-11T20:00:00Z,26.6493,-81.8810,2.36,10.14,1111122 